Time,TemperatureF,DewpointF,PressureIn,WindDirection,WindDirectionDegrees,WindSpeedMPH,WindSpeedGustMPH,Humidity,HourlyPrecipIn,Conditions,Clouds,dailyrainin,SoftwareType,DateUTC
2013-05-17 00:04:00,61.0,-99.9,0.00,SE,144,9.0,10.0,-999,0.25,,,-99.99,,2013-05-17 05:04:00,
2013-05-17 00:09:00,61.0,-99.9,0.00,SE,134,8.0,10.0,-999,0.25,,,-99.99,,2013-05-17 05:09:00,
2013-05-17 00:14:00,61.0,-99.9,0.00,SE,142,9.0,11.0,-999,0.25,,,-99.99,,2013-05-17 05:14:00,
2013-05-17 00:19:00,61.0,-99.9,0.00,SE,135,10.0,13.0,-999,0.25,,,-99.99,,2013-05-17 05:19:00,
2013-05-17 00:24:00,61.0,-99.9,0.00,SE,133,10.0,12.0,-999,0.25,,,-99.99,,2013-05-17 05:24:00,
2013-05-17 00:29:00,61.0,-99.9,0.00,SE,144,10.0,12.0,-999,0.25,,,-99.99,,2013-05-17 05:29:00,
2013-05-17 00:34:00,59.0,-99.9,0.00,SSE,152,9.0,10.0,-999,0.25,,,-99.99,,2013-05-17 05:34:00,
2013-05-17 00:39:00,60.0,-99.9,0.00,SE,144,9.0,11.0,-999,0.25,,,-99.99,,2013-05-17 05:39:00,
2013-05-17 00:44:00,60.0,-99.9,0.00,SE,140,9.0,10.0,-999,0.25,,,-99.99,,2013-05-17 05:44:00,
2013-05-17 00:49:00,60.0,-99.9,0.00,SSE,148,9.0,11.0,-999,0.25,,,-99.99,,2013-05-17 05:49:00,
2013-05-17 00:54:00,60.0,-99.9,0.00,SSE,148,9.0,10.0,-999,0.25,,,-99.99,,2013-05-17 05:54:00,
2013-05-17 00:59:00,60.0,-99.9,0.00,SE,140,9.0,10.0,-999,0.25,,,-99.99,,2013-05-17 05:59:00,
2013-05-17 01:04:00,60.0,-99.9,0.00,SE,145,9.0,10.0,-999,0.25,,,-99.99,,2013-05-17 06:04:00,
2013-05-17 01:09:00,60.0,-99.9,0.00,SSE,155,10.0,11.0,-999,0.25,,,-99.99,,2013-05-17 06:09:00,
2013-05-17 01:14:00,59.0,-99.9,0.00,SE,141,9.0,11.0,-999,0.25,,,-99.99,,2013-05-17 06:14:00,
2013-05-17 01:19:00,59.0,-99.9,0.00,SSE,165,11.0,12.0,-999,0.25,,,-99.99,,2013-05-17 06:19:00,
2013-05-17 01:24:00,60.0,-99.9,0.00,South,182,12.0,14.0,-999,0.25,,,-99.99,,2013-05-17 06:24:00,
2013-05-17 01:29:00,60.0,-99.9,0.00,South,172,12.0,13.0,-999,0.25,,,-99.99,,2013-05-17 06:29:00,
2013-05-17 01:34:00,59.0,-99.9,0.00,South,175,12.0,14.0,-999,0.25,,,-99.99,,2013-05-17 06:34:00,
2013-05-17 01:39:00,59.0,-99.9,0.00,South,180,11.0,13.0,-999,0.25,,,-99.99,,2013-05-17 06:39:00,
2013-05-17 01:44:00,59.0,-99.9,0.00,South,185,10.0,12.0,-999,0.25,,,-99.99,,2013-05-17 06:44:00,
2013-05-17 01:49:00,59.0,-99.9,0.00,South,183,10.0,11.0,-999,0.25,,,-99.99,,2013-05-17 06:49:00,
2013-05-17 01:54:00,59.0,-99.9,0.00,SSE,164,9.0,11.0,-999,0.25,,,-99.99,,2013-05-17 06:54:00,
2013-05-17 01:59:00,58.0,-99.9,0.00,SSW,209,6.0,7.0,-999,0.25,,,-99.99,,2013-05-17 06:59:00,
2013-05-17 02:04:00,58.0,-99.9,0.00,WSW,252,5.0,6.0,-999,0.25,,,-99.99,,2013-05-17 07:04:00,
2013-05-17 02:09:00,58.0,-99.9,0.00,WSW,248,5.0,6.0,-999,0.25,,,-99.99,,2013-05-17 07:09:00,
2013-05-17 02:14:00,57.0,-99.9,0.00,West,259,6.0,7.0,-999,0.25,,,-99.99,,2013-05-17 07:14:00,
2013-05-17 02:19:00,57.0,-99.9,0.00,WSW,240,5.0,6.0,-999,0.25,,,-99.99,,2013-05-17 07:19:00,
2013-05-17 02:24:00,57.0,-99.9,0.00,WSW,238,4.0,4.0,-999,0.25,,,-99.99,,2013-05-17 07:24:00,
2013-05-17 02:29:00,56.0,-99.9,0.00,SW,214,1.0,3.0,-999,0.25,,,-99.99,,2013-05-17 07:29:00,
2013-05-17 02:34:00,56.0,-99.9,0.00,North,0,0.0,0.0,-999,0.25,,,-99.99,,2013-05-17 07:34:00,
2013-05-17 02:39:00,57.0,-99.9,0.00,North,0,0.0,0.0,-999,0.25,,,-99.99,,2013-05-17 07:39:00,
2013-05-17 02:44:00,57.0,-99.9,0.00,North,0,0.0,0.0,-999,0.25,,,-99.99,,2013-05-17 07:44:00,
2013-05-17 02:49:00,57.0,-99.9,0.00,North,0,0.0,0.0,-999,0.25,,,-99.99,,2013-05-17 07:49:00,
2013-05-17 02:54:00,57.0,-99.9,0.00,North,0,0.0,0.0,-999,0.25,,,-99.99,,2013-05-17 07:54:00,
2013-05-17 02:59:00,57.0,-99.9,0.00,WSW,247,6.0,7.0,-999,0.25,,,-99.99,,2013-05-17 07:59:00,
2013-05-17 03:04:00,57.0,-99.9,0.00,WSW,258,6.0,6.0,-999,0.25,,,-99.99,,2013-05-17 08:04:00,
2013-05-17 03:09:00,55.0,-99.9,0.00,NNW,331,6.0,7.0,-999,0.25,,,-99.99,,2013-05-17 08:09:00,
2013-05-17 03:14:00,55.0,-99.9,0.00,NNW,338,6.0,7.0,-999,0.25,,,-99.99,,2013-05-17 08:14:00,
2013-05-17 03:19:00,55.0,-99.9,0.00,North,354,7.0,8.0,-999,0.25,,,-99.99,,2013-05-17 08:19:00,
2013-05-17 03:24:00,55.0,-99.9,0.00,North,360,7.0,7.0,-999,0.25,,,-99.99,,2013-05-17 08:24:00,
2013-05-17 03:29:00,55.0,-99.9,0.00,North,354,6.0,7.0,-999,0.25,,,-99.99,,2013-05-17 08:29:00,
2013-05-17 03:34:00,55.0,-99.9,0.00,NNW,334,6.0,7.0,-999,0.25,,,-99.99,,2013-05-17 08:34:00,
2013-05-17 03:39:00,55.0,-99.9,0.00,NNW,330,7.0,7.0,-999,0.25,,,-99.99,,2013-05-17 08:39:00,
2013-05-17 03:44:00,55.0,-99.9,0.00,NNW,333,6.0,6.0,-999,0.25,,,-99.99,,2013-05-17 08:44:00,
2013-05-17 03:49:00,56.0,-99.9,0.00,NNW,333,5.0,6.0,-999,0.25,,,-99.99,,2013-05-17 08:49:00,
2013-05-17 03:54:00,56.0,-99.9,0.00,WNW,300,7.0,7.0,-999,0.25,,,-99.99,,2013-05-17 08:54:00,
2013-05-17 03:59:00,55.0,-99.9,0.00,NW,310,7.0,8.0,-999,0.25,,,-99.99,,2013-05-17 08:59:00,
2013-05-17 04:04:00,55.0,-99.9,0.00,NW,312,6.0,7.0,-999,0.25,,,-99.99,,2013-05-17 09:04:00,
2013-05-17 04:09:00,55.0,-99.9,0.00,NW,317,6.0,6.0,-999,0.25,,,-99.99,,2013-05-17 09:09:00,
2013-05-17 04:14:00,55.0,-99.9,0.00,WNW,298,7.0,7.0,-999,0.25,,,-99.99,,2013-05-17 09:14:00,
2013-05-17 04:19:00,55.0,-99.9,0.00,NW,313,7.0,7.0,-999,0.25,,,-99.99,,2013-05-17 09:19:00,
2013-05-17 04:24:00,55.0,-99.9,0.00,NW,317,6.0,6.0,-999,0.25,,,-99.99,,2013-05-17 09:24:00,
2013-05-17 04:29:00,56.0,-99.9,0.00,WNW,298,4.0,5.0,-999,0.25,,,-99.99,,2013-05-17 09:29:00,
2013-05-17 04:34:00,56.0,-99.9,0.00,NNW,329,5.0,5.0,-999,0.25,,,-99.99,,2013-05-17 09:34:00,
2013-05-17 04:39:00,55.0,-99.9,0.00,NNW,333,5.0,6.0,-999,0.25,,,-99.99,,2013-05-17 09:39:00,
2013-05-17 04:44:00,56.0,-99.9,0.00,NW,320,5.0,5.0,-999,0.25,,,-99.99,,2013-05-17 09:44:00,
2013-05-17 04:49:00,56.0,-99.9,0.00,NW,307,2.0,3.0,-999,0.25,,,-99.99,,2013-05-17 09:49:00,
2013-05-17 04:54:00,54.0,-99.9,0.00,North,0,0.0,0.0,-999,0.25,,,-99.99,,2013-05-17 09:54:00,
2013-05-17 04:59:00,54.0,-99.9,0.00,North,0,0.0,0.0,-999,0.25,,,-99.99,,2013-05-17 09:59:00,
2013-05-17 05:04:00,54.0,-99.9,0.00,North,0,0.0,0.0,-999,0.25,,,-99.99,,2013-05-17 10:04:00,
2013-05-17 05:09:00,53.0,-99.9,0.00,North,0,0.0,0.0,-999,0.25,,,-99.99,,2013-05-17 10:09:00,
2013-05-17 05:14:00,54.0,-99.9,0.00,North,0,0.0,0.0,-999,0.25,,,-99.99,,2013-05-17 10:14:00,
2013-05-17 05:19:00,54.0,-99.9,0.00,North,0,0.0,0.0,-999,0.25,,,-99.99,,2013-05-17 10:19:00,
2013-05-17 05:24:00,53.0,-99.9,0.00,North,0,0.0,0.0,-999,0.25,,,-99.99,,2013-05-17 10:24:00,
2013-05-17 05:29:00,54.0,-99.9,0.00,North,0,0.0,0.0,-999,0.25,,,-99.99,,2013-05-17 10:29:00,
2013-05-17 05:34:00,54.0,-99.9,0.00,North,0,0.0,0.0,-999,0.25,,,-99.99,,2013-05-17 10:34:00,
2013-05-17 05:39:00,55.0,-99.9,0.00,North,0,0.0,0.0,-999,0.25,,,-99.99,,2013-05-17 10:39:00,
2013-05-17 05:44:00,54.0,-99.9,0.00,SSE,149,5.0,6.0,-999,0.25,,,-99.99,,2013-05-17 10:44:00,
2013-05-17 05:49:00,54.0,-99.9,0.00,SSE,166,6.0,6.0,-999,0.25,,,-99.99,,2013-05-17 10:49:00,
2013-05-17 05:54:00,53.0,-99.9,0.00,SSE,148,7.0,8.0,-999,0.25,,,-99.99,,2013-05-17 10:54:00,
2013-05-17 05:59:00,53.0,-99.9,0.00,South,169,6.0,7.0,-999,0.25,,,-99.99,,2013-05-17 10:59:00,
2013-05-17 06:04:00,54.0,-99.9,0.00,SE,124,10.0,11.0,-999,0.25,,,-99.99,,2013-05-17 11:04:00,
2013-05-17 06:09:00,54.0,-99.9,0.00,SE,131,11.0,12.0,-999,0.25,,,-99.99,,2013-05-17 11:09:00,
2013-05-17 06:14:00,54.0,-99.9,0.00,SE,124,10.0,11.0,-999,0.25,,,-99.99,,2013-05-17 11:14:00,
2013-05-17 06:19:00,55.0,-99.9,0.00,SE,125,10.0,12.0,-999,0.25,,,-99.99,,2013-05-17 11:19:00,
2013-05-17 06:24:00,55.0,-99.9,0.00,SE,137,9.0,11.0,-999,0.25,,,-99.99,,2013-05-17 11:24:00,
2013-05-17 06:29:00,55.0,-99.9,0.00,SE,137,7.0,9.0,-999,0.25,,,-99.99,,2013-05-17 11:29:00,
2013-05-17 06:34:00,56.0,-99.9,0.00,SSE,147,10.0,12.0,-999,0.25,,,-99.99,,2013-05-17 11:34:00,
2013-05-17 06:39:00,57.0,-99.9,0.00,SSE,147,12.0,14.0,-999,0.25,,,-99.99,,2013-05-17 11:39:00,
2013-05-17 06:44:00,58.0,-99.9,0.00,SSE,151,11.0,14.0,-999,0.25,,,-99.99,,2013-05-17 11:44:00,
2013-05-17 06:49:00,58.0,-99.9,0.00,SSE,157,9.0,11.0,-999,0.25,,,-99.99,,2013-05-17 11:49:00,
2013-05-17 06:54:00,58.0,-99.9,0.00,SW,214,6.0,8.0,-999,0.25,,,-99.99,,2013-05-17 11:54:00,
2013-05-17 06:59:00,57.0,-99.9,0.00,SE,140,6.0,9.0,-999,0.00,,,-99.99,,2013-05-17 11:59:00,
2013-05-17 07:04:00,56.0,-99.9,0.00,SE,137,9.0,11.0,-999,0.00,,,-99.99,,2013-05-17 12:04:00,
2013-05-17 07:09:00,56.0,-99.9,0.00,SSE,152,8.0,9.0,-999,0.00,,,-99.99,,2013-05-17 12:09:00,
2013-05-17 07:14:00,56.0,-99.9,0.00,WNW,283,8.0,10.0,-999,0.00,,,-99.99,,2013-05-17 12:14:00,
2013-05-17 07:19:00,57.0,-99.9,0.00,SSW,195,6.0,8.0,-999,0.00,,,-99.99,,2013-05-17 12:19:00,
2013-05-17 07:24:00,57.0,-99.9,0.00,South,183,9.0,11.0,-999,0.00,,,-99.99,,2013-05-17 12:24:00,
2013-05-17 07:29:00,57.0,-99.9,0.00,South,172,11.0,13.0,-999,0.00,,,-99.99,,2013-05-17 12:29:00,
2013-05-17 07:34:00,56.0,-99.9,0.00,South,172,11.0,14.0,-999,0.00,,,-99.99,,2013-05-17 12:34:00,
2013-05-17 07:39:00,56.0,-99.9,0.00,SSE,164,13.0,14.0,-999,0.00,,,-99.99,,2013-05-17 12:39:00,
2013-05-17 07:44:00,56.0,-99.9,0.00,SSE,151,13.0,14.0,-999,0.00,,,-99.99,,2013-05-17 12:44:00,
2013-05-17 07:49:00,56.0,-99.9,0.00,South,172,11.0,13.0,-999,0.00,,,-99.99,,2013-05-17 12:49:00,
2013-05-17 07:54:00,56.0,-99.9,0.00,SSE,168,10.0,12.0,-999,0.00,,,-99.99,,2013-05-17 12:54:00,
2013-05-17 07:59:00,57.0,-99.9,0.00,SSE,157,10.0,11.0,-999,0.00,,,-99.99,,2013-05-17 12:59:00,
2013-05-17 08:04:00,58.0,-99.9,0.00,SSE,151,9.0,10.0,-999,0.00,,,-99.99,,2013-05-17 13:04:00,
2013-05-17 08:09:00,58.0,-99.9,0.00,SSE,162,9.0,10.0,-999,0.00,,,-99.99,,2013-05-17 13:09:00,
2013-05-17 08:14:00,59.0,-99.9,0.00,South,180,8.0,10.0,-999,0.00,,,-99.99,,2013-05-17 13:14:00,
2013-05-17 08:19:00,60.0,-99.9,0.00,SSE,155,9.0,10.0,-999,0.00,,,-99.99,,2013-05-17 13:19:00,
2013-05-17 08:24:00,60.0,-99.9,0.00,South,171,8.0,9.0,-999,0.00,,,-99.99,,2013-05-17 13:24:00,
2013-05-17 08:29:00,61.0,-99.9,0.00,SSW,196,5.0,6.0,-999,0.00,,,-99.99,,2013-05-17 13:29:00,
2013-05-17 08:34:00,61.0,-99.9,0.00,South,175,5.0,6.0,-999,0.00,,,-99.99,,2013-05-17 13:34:00,
2013-05-17 08:39:00,62.0,-99.9,0.00,SSW,209,6.0,8.0,-999,0.00,,,-99.99,,2013-05-17 13:39:00,
2013-05-17 08:44:00,62.0,-99.9,0.00,SSE,151,7.0,9.0,-999,0.00,,,-99.99,,2013-05-17 13:44:00,
2013-05-17 08:49:00,62.0,-99.9,0.00,SSE,161,8.0,9.0,-999,0.00,,,-99.99,,2013-05-17 13:49:00,
2013-05-17 08:54:00,63.0,-99.9,0.00,SSE,161,7.0,8.0,-999,0.00,,,-99.99,,2013-05-17 13:54:00,
2013-05-17 08:59:00,63.0,-99.9,0.00,SSW,203,6.0,8.0,-999,0.00,,,-99.99,,2013-05-17 13:59:00,
2013-05-17 09:04:00,63.0,-99.9,0.00,South,186,5.0,7.0,-999,0.00,,,-99.99,,2013-05-17 14:04:00,
2013-05-17 09:09:00,63.0,-99.9,0.00,SSW,193,7.0,8.0,-999,0.00,,,-99.99,,2013-05-17 14:09:00,
2013-05-17 09:14:00,64.0,-99.9,0.00,South,179,7.0,9.0,-999,0.00,,,-99.99,,2013-05-17 14:14:00,
2013-05-17 09:19:00,64.0,-99.9,0.00,SSE,162,8.0,10.0,-999,0.00,,,-99.99,,2013-05-17 14:19:00,
2013-05-17 09:24:00,65.0,-99.9,0.00,SSW,202,6.0,8.0,-999,0.00,,,-99.99,,2013-05-17 14:24:00,
2013-05-17 09:29:00,66.0,-99.9,0.00,SSW,210,7.0,9.0,-999,0.00,,,-99.99,,2013-05-17 14:29:00,
2013-05-17 09:34:00,65.0,-99.9,0.00,South,185,8.0,10.0,-999,0.00,,,-99.99,,2013-05-17 14:34:00,
2013-05-17 09:39:00,65.0,-99.9,0.00,SSW,193,8.0,10.0,-999,0.00,,,-99.99,,2013-05-17 14:39:00,
2013-05-17 09:44:00,65.0,-99.9,0.00,South,176,10.0,11.0,-999,0.00,,,-99.99,,2013-05-17 14:44:00,
2013-05-17 09:49:00,66.0,-99.9,0.00,SSW,195,7.0,8.0,-999,0.00,,,-99.99,,2013-05-17 14:49:00,
2013-05-17 09:54:00,66.0,-99.9,0.00,South,180,7.0,9.0,-999,0.00,,,-99.99,,2013-05-17 14:54:00,
2013-05-17 09:59:00,67.0,-99.9,0.00,South,180,8.0,9.0,-999,0.00,,,-99.99,,2013-05-17 14:59:00,
2013-05-17 10:04:00,66.0,-99.9,0.00,SSE,155,8.0,9.0,-999,0.00,,,-99.99,,2013-05-17 15:04:00,
2013-05-17 10:09:00,68.0,-99.9,0.00,SSE,148,7.0,9.0,-999,0.00,,,-99.99,,2013-05-17 15:09:00,
2013-05-17 10:14:00,67.0,-99.9,0.00,South,172,7.0,8.0,-999,0.00,,,-99.99,,2013-05-17 15:14:00,
2013-05-17 10:19:00,67.0,-99.9,0.00,SSE,162,8.0,9.0,-999,0.00,,,-99.99,,2013-05-17 15:19:00,
2013-05-17 10:24:00,68.0,-99.9,0.00,South,188,7.0,8.0,-999,0.00,,,-99.99,,2013-05-17 15:24:00,
2013-05-17 10:29:00,69.0,-99.9,0.00,SE,140,6.0,8.0,-999,0.00,,,-99.99,,2013-05-17 15:29:00,
2013-05-17 10:34:00,68.0,-99.9,0.00,SSE,149,6.0,9.0,-999,0.00,,,-99.99,,2013-05-17 15:34:00,
2013-05-17 10:39:00,69.0,-99.9,0.00,SSE,151,7.0,8.0,-999,0.00,,,-99.99,,2013-05-17 15:39:00,
2013-05-17 10:44:00,69.0,-99.9,0.00,SSE,158,7.0,9.0,-999,0.00,,,-99.99,,2013-05-17 15:44:00,
2013-05-17 10:49:00,70.0,-99.9,0.00,SE,133,9.0,10.0,-999,0.00,,,-99.99,,2013-05-17 15:49:00,
2013-05-17 10:54:00,69.0,-99.9,0.00,SE,135,7.0,8.0,-999,0.00,,,-99.99,,2013-05-17 15:54:00,
2013-05-17 10:59:00,71.0,-99.9,0.00,SE,125,7.0,11.0,-999,0.00,,,-99.99,,2013-05-17 15:59:00,
2013-05-17 11:04:00,71.0,-99.9,0.00,SE,125,9.0,11.0,-999,0.00,,,-99.99,,2013-05-17 16:04:00,
2013-05-17 11:09:00,71.0,-99.9,0.00,SSE,154,8.0,10.0,-999,0.00,,,-99.99,,2013-05-17 16:09:00,
2013-05-17 11:14:00,72.0,-99.9,0.00,SE,145,8.0,11.0,-999,0.00,,,-99.99,,2013-05-17 16:14:00,
2013-05-17 11:19:00,71.0,-99.9,0.00,SE,138,9.0,11.0,-999,0.00,,,-99.99,,2013-05-17 16:19:00,
2013-05-17 11:24:00,72.0,-99.9,0.00,SE,130,9.0,13.0,-999,0.00,,,-99.99,,2013-05-17 16:24:00,
2013-05-17 11:29:00,72.0,-99.9,0.00,SE,135,11.0,12.0,-999,0.00,,,-99.99,,2013-05-17 16:29:00,
2013-05-17 11:34:00,72.0,-99.9,0.00,SE,134,10.0,11.0,-999,0.00,,,-99.99,,2013-05-17 16:34:00,
2013-05-17 11:39:00,73.0,-99.9,0.00,SE,134,9.0,11.0,-999,0.00,,,-99.99,,2013-05-17 16:39:00,
2013-05-17 11:44:00,74.0,-99.9,0.00,SE,134,9.0,11.0,-999,0.00,,,-99.99,,2013-05-17 16:44:00,
2013-05-17 11:49:00,74.0,-99.9,0.00,SE,142,10.0,11.0,-999,0.00,,,-99.99,,2013-05-17 16:49:00,
2013-05-17 11:54:00,74.0,-99.9,0.00,SSE,149,12.0,14.0,-999,0.00,,,-99.99,,2013-05-17 16:54:00,
2013-05-17 11:59:00,74.0,-99.9,0.00,SE,135,11.0,13.0,-999,0.00,,,-99.99,,2013-05-17 16:59:00,
2013-05-17 12:04:00,74.0,-99.9,0.00,SSE,159,12.0,14.0,-999,0.00,,,-99.99,,2013-05-17 17:04:00,
2013-05-17 12:09:00,75.0,-99.9,0.00,SSE,158,11.0,13.0,-999,0.00,,,-99.99,,2013-05-17 17:09:00,
2013-05-17 12:14:00,75.0,-99.9,0.00,SSE,157,12.0,14.0,-999,0.00,,,-99.99,,2013-05-17 17:14:00,
2013-05-17 12:19:00,76.0,-99.9,0.00,SE,124,12.0,14.0,-999,0.00,,,-99.99,,2013-05-17 17:19:00,
2013-05-17 12:24:00,76.0,-99.9,0.00,SE,145,13.0,15.0,-999,0.00,,,-99.99,,2013-05-17 17:24:00,
2013-05-17 12:29:00,76.0,-99.9,0.00,SE,140,13.0,15.0,-999,0.00,,,-99.99,,2013-05-17 17:29:00,
2013-05-17 12:34:00,76.0,-99.9,0.00,SE,141,13.0,17.0,-999,0.00,,,-99.99,,2013-05-17 17:34:00,
2013-05-17 12:39:00,76.0,-99.9,0.00,SE,145,13.0,16.0,-999,0.00,,,-99.99,,2013-05-17 17:39:00,
2013-05-17 12:44:00,77.0,-99.9,0.00,SE,130,15.0,17.0,-999,0.00,,,-99.99,,2013-05-17 17:44:00,
2013-05-17 12:49:00,77.0,-99.9,0.00,SE,135,15.0,16.0,-999,0.00,,,-99.99,,2013-05-17 17:49:00,
2013-05-17 12:54:00,77.0,-99.9,0.00,SE,137,13.0,16.0,-999,0.00,,,-99.99,,2013-05-17 17:54:00,
2013-05-17 12:59:00,78.0,-99.9,0.00,SE,141,13.0,16.0,-999,0.00,,,-99.99,,2013-05-17 17:59:00,
2013-05-17 13:04:00,77.0,-99.9,0.00,SE,144,14.0,17.0,-999,0.00,,,-99.99,,2013-05-17 18:04:00,
2013-05-17 13:09:00,78.0,-99.9,0.00,SE,130,15.0,19.0,-999,0.00,,,-99.99,,2013-05-17 18:09:00,
2013-05-17 13:14:00,78.0,-99.9,0.00,SE,125,13.0,16.0,-999,0.00,,,-99.99,,2013-05-17 18:14:00,
2013-05-17 13:19:00,78.0,-99.9,0.00,SE,134,14.0,17.0,-999,0.00,,,-99.99,,2013-05-17 18:19:00,
2013-05-17 13:24:00,78.0,-99.9,0.00,SE,145,14.0,18.0,-999,0.00,,,-99.99,,2013-05-17 18:24:00,
2013-05-17 13:29:00,79.0,-99.9,0.00,ESE,121,15.0,20.0,-999,0.00,,,-99.99,,2013-05-17 18:29:00,
2013-05-17 13:34:00,79.0,-99.9,0.00,SE,131,14.0,16.0,-999,0.00,,,-99.99,,2013-05-17 18:34:00,
2013-05-17 13:39:00,79.0,-99.9,0.00,SE,142,15.0,17.0,-999,0.00,,,-99.99,,2013-05-17 18:39:00,
2013-05-17 13:44:00,80.0,-99.9,0.00,SSE,149,15.0,17.0,-999,0.00,,,-99.99,,2013-05-17 18:44:00,
2013-05-17 13:49:00,79.0,-99.9,0.00,SSE,147,13.0,16.0,-999,0.00,,,-99.99,,2013-05-17 18:49:00,
2013-05-17 13:54:00,79.0,-99.9,0.00,SE,128,14.0,17.0,-999,0.00,,,-99.99,,2013-05-17 18:54:00,
2013-05-17 13:59:00,81.0,-99.9,0.00,ESE,107,13.0,17.0,-999,0.00,,,-99.99,,2013-05-17 18:59:00,
2013-05-17 14:04:00,79.0,-99.9,0.00,SSE,149,16.0,18.0,-999,0.00,,,-99.99,,2013-05-17 19:04:00,
2013-05-17 14:09:00,80.0,-99.9,0.00,ESE,116,15.0,18.0,-999,0.00,,,-99.99,,2013-05-17 19:09:00,
2013-05-17 14:14:00,80.0,-99.9,0.00,SE,140,14.0,19.0,-999,0.00,,,-99.99,,2013-05-17 19:14:00,
2013-05-17 14:19:00,80.0,-99.9,0.00,SE,144,16.0,18.0,-999,0.00,,,-99.99,,2013-05-17 19:19:00,
2013-05-17 14:24:00,80.0,-99.9,0.00,SE,131,18.0,20.0,-999,0.00,,,-99.99,,2013-05-17 19:24:00,
2013-05-17 14:29:00,81.0,-99.9,0.00,ESE,104,14.0,19.0,-999,0.00,,,-99.99,,2013-05-17 19:29:00,
2013-05-17 14:34:00,81.0,-99.9,0.00,ESE,110,15.0,18.0,-999,0.00,,,-99.99,,2013-05-17 19:34:00,
2013-05-17 14:39:00,81.0,-99.9,0.00,SSE,152,15.0,19.0,-999,0.00,,,-99.99,,2013-05-17 19:39:00,
2013-05-17 14:44:00,81.0,-99.9,0.00,ESE,120,16.0,20.0,-999,0.00,,,-99.99,,2013-05-17 19:44:00,
2013-05-17 14:49:00,81.0,-99.9,0.00,SE,141,17.0,20.0,-999,0.00,,,-99.99,,2013-05-17 19:49:00,
2013-05-17 14:54:00,81.0,-99.9,0.00,SE,128,15.0,18.0,-999,0.00,,,-99.99,,2013-05-17 19:54:00,
2013-05-17 14:59:00,82.0,-99.9,0.00,SE,145,16.0,19.0,-999,0.00,,,-99.99,,2013-05-17 19:59:00,
2013-05-17 15:04:00,81.0,-99.9,0.00,ESE,116,16.0,18.0,-999,0.00,,,-99.99,,2013-05-17 20:04:00,
2013-05-17 15:09:00,82.0,-99.9,0.00,SE,141,16.0,18.0,-999,0.00,,,-99.99,,2013-05-17 20:09:00,
2013-05-17 15:14:00,82.0,-99.9,0.00,East,100,18.0,21.0,-999,0.00,,,-99.99,,2013-05-17 20:14:00,
2013-05-17 15:19:00,81.0,-99.9,0.00,SE,135,18.0,21.0,-999,0.00,,,-99.99,,2013-05-17 20:19:00,
2013-05-17 15:24:00,81.0,-99.9,0.00,ESE,116,19.0,23.0,-999,0.00,,,-99.99,,2013-05-17 20:24:00,
2013-05-17 15:29:00,82.0,-99.9,0.00,ESE,109,19.0,23.0,-999,0.00,,,-99.99,,2013-05-17 20:29:00,
2013-05-17 15:34:00,82.0,-99.9,0.00,ESE,114,18.0,23.0,-999,0.00,,,-99.99,,2013-05-17 20:34:00,
2013-05-17 15:39:00,82.0,-99.9,0.00,SE,133,19.0,22.0,-999,0.00,,,-99.99,,2013-05-17 20:39:00,
2013-05-17 15:44:00,83.0,-99.9,0.00,ESE,114,17.0,22.0,-999,0.00,,,-99.99,,2013-05-17 20:44:00,
2013-05-17 15:49:00,82.0,-99.9,0.00,SE,125,18.0,21.0,-999,0.00,,,-99.99,,2013-05-17 20:49:00,
2013-05-17 15:54:00,82.0,-99.9,0.00,ESE,123,16.0,19.0,-999,0.00,,,-99.99,,2013-05-17 20:54:00,
2013-05-17 15:59:00,83.0,-99.9,0.00,SE,128,18.0,22.0,-999,0.00,,,-99.99,,2013-05-17 20:59:00,
2013-05-17 16:04:00,83.0,-99.9,0.00,ESE,110,20.0,24.0,-999,0.00,,,-99.99,,2013-05-17 21:04:00,
2013-05-17 16:09:00,83.0,-99.9,0.00,ESE,118,20.0,21.0,-999,0.00,,,-99.99,,2013-05-17 21:09:00,
2013-05-17 16:14:00,83.0,-99.9,0.00,SE,124,18.0,20.0,-999,0.00,,,-99.99,,2013-05-17 21:14:00,
2013-05-17 16:19:00,83.0,-99.9,0.00,ESE,120,18.0,21.0,-999,0.00,,,-99.99,,2013-05-17 21:19:00,
2013-05-17 16:24:00,83.0,-99.9,0.00,ESE,107,20.0,23.0,-999,0.00,,,-99.99,,2013-05-17 21:24:00,
2013-05-17 16:29:00,83.0,-99.9,0.00,ESE,116,19.0,22.0,-999,0.00,,,-99.99,,2013-05-17 21:29:00,
2013-05-17 16:34:00,83.0,-99.9,0.00,SE,128,17.0,21.0,-999,0.00,,,-99.99,,2013-05-17 21:34:00,
2013-05-17 16:39:00,83.0,-99.9,0.00,SE,127,18.0,22.0,-999,0.00,,,-99.99,,2013-05-17 21:39:00,
2013-05-17 16:44:00,83.0,-99.9,0.00,ESE,103,16.0,21.0,-999,0.00,,,-99.99,,2013-05-17 21:44:00,
2013-05-17 16:49:00,83.0,-99.9,0.00,ESE,117,19.0,24.0,-999,0.00,,,-99.99,,2013-05-17 21:49:00,
2013-05-17 16:54:00,83.0,-99.9,0.00,SE,125,17.0,22.0,-999,0.00,,,-99.99,,2013-05-17 21:54:00,
2013-05-17 16:59:00,83.0,-99.9,0.00,East,96,20.0,23.0,-999,0.00,,,-99.99,,2013-05-17 21:59:00,
2013-05-17 17:04:00,83.0,-99.9,0.00,ESE,113,17.0,22.0,-999,0.00,,,-99.99,,2013-05-17 22:04:00,
2013-05-17 17:09:00,83.0,-99.9,0.00,SE,131,19.0,23.0,-999,0.00,,,-99.99,,2013-05-17 22:09:00,
2013-05-17 17:14:00,83.0,-99.9,0.00,SE,130,19.0,25.0,-999,0.00,,,-99.99,,2013-05-17 22:14:00,
2013-05-17 17:19:00,84.0,-99.9,0.00,ESE,123,20.0,22.0,-999,0.00,,,-99.99,,2013-05-17 22:19:00,
2013-05-17 17:24:00,83.0,-99.9,0.00,ESE,121,19.0,22.0,-999,0.00,,,-99.99,,2013-05-17 22:24:00,
2013-05-17 17:29:00,84.0,-99.9,0.00,ESE,114,20.0,25.0,-999,0.00,,,-99.99,,2013-05-17 22:29:00,
2013-05-17 17:34:00,83.0,-99.9,0.00,ESE,116,18.0,22.0,-999,0.00,,,-99.99,,2013-05-17 22:34:00,
2013-05-17 17:39:00,83.0,-99.9,0.00,SE,138,19.0,23.0,-999,0.00,,,-99.99,,2013-05-17 22:39:00,
2013-05-17 17:44:00,83.0,-99.9,0.00,ESE,102,20.0,27.0,-999,0.00,,,-99.99,,2013-05-17 22:44:00,
2013-05-17 17:49:00,84.0,-99.9,0.00,ESE,123,18.0,20.0,-999,0.00,,,-99.99,,2013-05-17 22:49:00,
2013-05-17 17:54:00,83.0,-99.9,0.00,SE,131,18.0,23.0,-999,0.00,,,-99.99,,2013-05-17 22:54:00,
2013-05-17 17:59:00,83.0,-99.9,0.00,ESE,107,19.0,23.0,-999,0.00,,,-99.99,,2013-05-17 22:59:00,
2013-05-17 18:04:00,82.0,-99.9,0.00,ESE,118,19.0,23.0,-999,0.00,,,-99.99,,2013-05-17 23:04:00,
2013-05-17 18:09:00,83.0,-99.9,0.00,ESE,102,17.0,20.0,-999,0.00,,,-99.99,,2013-05-17 23:09:00,
2013-05-17 18:14:00,83.0,-99.9,0.00,East,100,18.0,21.0,-999,0.00,,,-99.99,,2013-05-17 23:14:00,
2013-05-17 18:19:00,82.0,-99.9,0.00,SE,130,18.0,22.0,-999,0.00,,,-99.99,,2013-05-17 23:19:00,
2013-05-17 18:24:00,82.0,-99.9,0.00,SE,124,19.0,25.0,-999,0.00,,,-99.99,,2013-05-17 23:24:00,
2013-05-17 18:29:00,82.0,-99.9,0.00,ESE,104,19.0,25.0,-999,0.00,,,-99.99,,2013-05-17 23:29:00,
2013-05-17 18:34:00,82.0,-99.9,0.00,SE,133,20.0,23.0,-999,0.00,,,-99.99,,2013-05-17 23:34:00,
2013-05-17 18:39:00,82.0,-99.9,0.00,SE,133,18.0,23.0,-999,0.00,,,-99.99,,2013-05-17 23:39:00,
2013-05-17 18:44:00,82.0,-99.9,0.00,SE,135,20.0,25.0,-999,0.00,,,-99.99,,2013-05-17 23:44:00,
2013-05-17 18:49:00,81.0,-99.9,0.00,SE,128,20.0,25.0,-999,0.00,,,-99.99,,2013-05-17 23:49:00,
2013-05-17 18:54:00,81.0,-99.9,0.00,ESE,117,19.0,26.0,-999,0.00,,,-99.99,,2013-05-17 23:54:00,
2013-05-17 18:59:00,81.0,-99.9,0.00,SE,124,19.0,25.0,-999,0.00,,,-99.99,,2013-05-17 23:59:00,
2013-05-17 19:04:00,81.0,-99.9,0.00,ESE,120,19.0,24.0,-999,0.00,,,-99.99,,2013-05-18 00:04:00,
2013-05-17 19:09:00,81.0,-99.9,0.00,ESE,118,19.0,21.0,-999,0.00,,,-99.99,,2013-05-18 00:09:00,
2013-05-17 19:14:00,80.0,-99.9,0.00,SE,125,18.0,21.0,-999,0.00,,,-99.99,,2013-05-18 00:14:00,
2013-05-17 19:19:00,80.0,-99.9,0.00,ESE,118,18.0,22.0,-999,0.00,,,-99.99,,2013-05-18 00:19:00,
2013-05-17 19:24:00,80.0,-99.9,0.00,SE,127,19.0,24.0,-999,0.00,,,-99.99,,2013-05-18 00:24:00,
2013-05-17 19:29:00,80.0,-99.9,0.00,ESE,123,19.0,23.0,-999,0.00,,,-99.99,,2013-05-18 00:29:00,
2013-05-17 19:34:00,80.0,-99.9,0.00,ESE,116,19.0,23.0,-999,0.00,,,-99.99,,2013-05-18 00:34:00,
2013-05-17 19:39:00,79.0,-99.9,0.00,SE,135,18.0,21.0,-999,0.00,,,-99.99,,2013-05-18 00:39:00,
2013-05-17 19:44:00,79.0,-99.9,0.00,SE,137,19.0,23.0,-999,0.00,,,-99.99,,2013-05-18 00:44:00,
2013-05-17 19:49:00,79.0,-99.9,0.00,ESE,123,19.0,24.0,-999,0.00,,,-99.99,,2013-05-18 00:49:00,
2013-05-17 19:54:00,79.0,-99.9,0.00,ESE,123,18.0,21.0,-999,0.00,,,-99.99,,2013-05-18 00:54:00,
2013-05-17 19:59:00,78.0,-99.9,0.00,ESE,116,17.0,21.0,-999,0.00,,,-99.99,,2013-05-18 00:59:00,
2013-05-17 20:04:00,78.0,-99.9,0.00,ESE,116,16.0,20.0,-999,0.00,,,-99.99,,2013-05-18 01:04:00,
2013-05-17 20:09:00,78.0,-99.9,0.00,SE,133,16.0,20.0,-999,0.00,,,-99.99,,2013-05-18 01:09:00,
2013-05-17 20:14:00,77.0,-99.9,0.00,SE,127,17.0,20.0,-999,0.00,,,-99.99,,2013-05-18 01:14:00,
2013-05-17 20:19:00,77.0,-99.9,0.00,SE,137,16.0,19.0,-999,0.00,,,-99.99,,2013-05-18 01:19:00,
2013-05-17 20:24:00,77.0,-99.9,0.00,SE,127,17.0,20.0,-999,0.00,,,-99.99,,2013-05-18 01:24:00,
2013-05-17 20:29:00,76.0,-99.9,0.00,ESE,113,16.0,19.0,-999,0.00,,,-99.99,,2013-05-18 01:29:00,
2013-05-17 20:34:00,75.0,-99.9,0.00,SE,130,15.0,19.0,-999,0.00,,,-99.99,,2013-05-18 01:34:00,
2013-05-17 20:39:00,74.0,-99.9,0.00,SE,140,13.0,15.0,-999,0.00,,,-99.99,,2013-05-18 01:39:00,
2013-05-17 20:44:00,74.0,-99.9,0.00,SE,135,12.0,15.0,-999,0.00,,,-99.99,,2013-05-18 01:44:00,
2013-05-17 20:49:00,73.0,-99.9,0.00,ESE,116,12.0,15.0,-999,0.00,,,-99.99,,2013-05-18 01:49:00,
2013-05-17 20:54:00,73.0,-99.9,0.00,SE,140,12.0,15.0,-999,0.00,,,-99.99,,2013-05-18 01:54:00,
2013-05-17 20:59:00,73.0,-99.9,0.00,SE,128,12.0,14.0,-999,0.00,,,-99.99,,2013-05-18 01:59:00,
2013-05-17 21:04:00,72.0,-99.9,0.00,SE,130,11.0,14.0,-999,0.00,,,-99.99,,2013-05-18 02:04:00,
2013-05-17 21:09:00,72.0,-99.9,0.00,ESE,117,11.0,13.0,-999,0.00,,,-99.99,,2013-05-18 02:09:00,
2013-05-17 21:14:00,71.0,-99.9,0.00,ESE,120,11.0,12.0,-999,0.00,,,-99.99,,2013-05-18 02:14:00,
2013-05-17 21:19:00,71.0,-99.9,0.00,ESE,117,11.0,13.0,-999,0.00,,,-99.99,,2013-05-18 02:19:00,
2013-05-17 21:24:00,70.0,-99.9,0.00,SSE,151,11.0,13.0,-999,0.00,,,-99.99,,2013-05-18 02:24:00,
2013-05-17 21:29:00,71.0,-99.9,0.00,SSE,148,12.0,14.0,-999,0.00,,,-99.99,,2013-05-18 02:29:00,
2013-05-17 21:34:00,71.0,-99.9,0.00,SE,141,14.0,17.0,-999,0.00,,,-99.99,,2013-05-18 02:34:00,
2013-05-17 21:39:00,71.0,-99.9,0.00,SSE,155,14.0,19.0,-999,0.00,,,-99.99,,2013-05-18 02:39:00,
2013-05-17 21:44:00,70.0,-99.9,0.00,SE,138,11.0,13.0,-999,0.00,,,-99.99,,2013-05-18 02:44:00,
2013-05-17 21:49:00,70.0,-99.9,0.00,SE,141,12.0,15.0,-999,0.00,,,-99.99,,2013-05-18 02:49:00,
2013-05-17 21:54:00,70.0,-99.9,0.00,SE,131,12.0,14.0,-999,0.00,,,-99.99,,2013-05-18 02:54:00,
2013-05-17 21:59:00,70.0,-99.9,0.00,ESE,120,13.0,16.0,-999,0.00,,,-99.99,,2013-05-18 02:59:00,
2013-05-17 22:04:00,70.0,-99.9,0.00,SE,127,12.0,15.0,-999,0.00,,,-99.99,,2013-05-18 03:04:00,
2013-05-17 22:09:00,69.0,-99.9,0.00,SE,142,13.0,16.0,-999,0.00,,,-99.99,,2013-05-18 03:09:00,
2013-05-17 22:14:00,69.0,-99.9,0.00,SSE,152,13.0,18.0,-999,0.00,,,-99.99,,2013-05-18 03:14:00,
2013-05-17 22:19:00,69.0,-99.9,0.00,SE,142,14.0,17.0,-999,0.00,,,-99.99,,2013-05-18 03:19:00,
2013-05-17 22:24:00,69.0,-99.9,0.00,SSE,154,13.0,17.0,-999,0.00,,,-99.99,,2013-05-18 03:24:00,
2013-05-17 22:29:00,69.0,-99.9,0.00,SE,135,13.0,15.0,-999,0.00,,,-99.99,,2013-05-18 03:29:00,
2013-05-17 22:34:00,69.0,-99.9,0.00,SE,140,13.0,16.0,-999,0.00,,,-99.99,,2013-05-18 03:34:00,
2013-05-17 22:39:00,69.0,-99.9,0.00,SSE,151,13.0,15.0,-999,0.00,,,-99.99,,2013-05-18 03:39:00,
2013-05-17 22:44:00,69.0,-99.9,0.00,SSE,147,13.0,16.0,-999,0.00,,,-99.99,,2013-05-18 03:44:00,
2013-05-17 22:49:00,68.0,-99.9,0.00,SE,140,14.0,17.0,-999,0.00,,,-99.99,,2013-05-18 03:49:00,
2013-05-17 22:54:00,68.0,-99.9,0.00,SE,141,15.0,19.0,-999,0.00,,,-99.99,,2013-05-18 03:54:00,
2013-05-17 22:59:00,68.0,-99.9,0.00,SE,138,15.0,18.0,-999,0.00,,,-99.99,,2013-05-18 03:59:00,
2013-05-17 23:04:00,68.0,-99.9,0.00,SE,124,15.0,18.0,-999,0.00,,,-99.99,,2013-05-18 04:04:00,
2013-05-17 23:09:00,68.0,-99.9,0.00,SE,134,15.0,17.0,-999,0.00,,,-99.99,,2013-05-18 04:09:00,
2013-05-17 23:14:00,68.0,-99.9,0.00,SE,141,14.0,17.0,-999,0.00,,,-99.99,,2013-05-18 04:14:00,
2013-05-17 23:19:00,68.0,-99.9,0.00,ESE,118,15.0,17.0,-999,0.00,,,-99.99,,2013-05-18 04:19:00,
2013-05-17 23:24:00,67.0,-99.9,0.00,SE,127,14.0,17.0,-999,0.00,,,-99.99,,2013-05-18 04:24:00,
2013-05-17 23:29:00,68.0,-99.9,0.00,SSE,149,14.0,18.0,-999,0.00,,,-99.99,,2013-05-18 04:29:00,
2013-05-17 23:34:00,67.0,-99.9,0.00,SE,140,14.0,16.0,-999,0.00,,,-99.99,,2013-05-18 04:34:00,
2013-05-17 23:39:00,67.0,-99.9,0.00,SE,141,14.0,17.0,-999,0.00,,,-99.99,,2013-05-18 04:39:00,
2013-05-17 23:44:00,67.0,-99.9,0.00,SSE,152,15.0,17.0,-999,0.00,,,-99.99,,2013-05-18 04:44:00,
2013-05-17 23:49:00,67.0,-99.9,0.00,SE,145,14.0,18.0,-999,0.00,,,-99.99,,2013-05-18 04:49:00,
2013-05-17 23:54:00,67.0,-99.9,0.00,SSE,154,16.0,19.0,-999,0.00,,,-99.99,,2013-05-18 04:54:00,
2013-05-17 23:59:00,67.0,-99.9,0.00,SE,144,16.0,19.0,-999,0.00,,,-99.99,,2013-05-18 04:59:00,